Location: Berduj
(43.0019°N, 22.3781°E)
Time: 22:52:50
(UTC+00:00)

Cosmos 1300 - Pass Details

Date: 19 October 2019
Orbit: 511 x 515 km, 82.5° (Epoch: 22 November)

Event Time Altitude Azimuth Distance (km) Brightness Sun altitude
Rises 16:43:09 0° 155° (SSE) 2,619 6.1 -11.9°
Reaches altitude 10° 16:45:37 10° 140° (SE) 1,738 5.0 -12.3°
Maximum altitude 16:48:33 22° 89° (E) 1,178 3.9 -12.9°
Enters shadow 16:49:39 19° 64° (ENE) 1,272 4.1 -13.1°
Exits shadow 16:52:25 - 31° (NNE) 2,053 5.4 -13.6°
Sets 16:54:00 0° 23° (NNE) 2,641 6.1 -13.9°
